Hourly Data Report for June 15, 2018

TORONTO CITY
ONTARIO
Current Station Operator: ECCC - MSC

43°40'00.000" N
79°24'00.000" W
112.50 m
6158355
71508
XTO

Download Data

Hourly Data (June 2018)
Hourly Data Report for June 15, 2018
TIME
LST
Temp Definition
°C
Dew Point Definition
°C
Rel Hum Definition
%
Precip. Amount Definition
mm

Wind Dir Definition
10's deg

Wind Spd Definition
km/h
Visibility Definition
km
Stn Press Definition
kPa
Hmdx Definition


Wind Chill Definition


Weather Definition


00:00 17.6 5.6 45 0.0 LegendMM LegendMM   100.27     LegendNANA
01:00 16.3 6.3 52 0.0 LegendMM LegendMM   100.29     LegendNANA
02:00 15.1 7.1 59 0.0 LegendMM LegendMM   100.32     LegendNANA
03:00 14.8 7.6 62 0.0 LegendMM LegendMM   100.35     LegendNANA
04:00 14.2 7.0 62 0.0 LegendMM LegendMM   100.39     LegendNANA
05:00 14.7 8.4 66 0.0 LegendMM LegendMM   100.41     LegendNANA
06:00 15.1 8.2 63 0.0 LegendMM LegendMM   100.43     LegendNANA
07:00 17.7 8.2 54 0.0 LegendMM LegendMM   100.42     LegendNANA
08:00 20.0 6.1 40 0.0 LegendMM LegendMM   100.43     LegendNANA
09:00 21.1 8.8 45 0.0 LegendMM LegendMM   100.38     LegendNANA
10:00 21.2 7.8 42 0.0 LegendMM LegendMM   100.36     LegendNANA
11:00 21.2 7.7 42 0.0 LegendMM LegendMM   100.49     LegendNANA
12:00 22.4 4.3 31 0.0 LegendMM LegendMM   100.48     LegendNANA
13:00 23.5 4.3 29 0.0 LegendMM LegendMM   100.38     LegendNANA
14:00 23.7 4.3 28 0.0 LegendMM LegendMM   100.37     LegendNANA
15:00 23.8 6.2 32 0.0 LegendMM LegendMM   100.34     LegendNANA
16:00 23.8 6.4 33 0.0 LegendMM LegendMM   100.29     LegendNANA
17:00 23.7 6.2 33 0.0 LegendMM LegendMM   100.22     LegendNANA
18:00 23.2 6.5 34 0.0 LegendMM LegendMM   100.19     LegendNANA
19:00 22.7 6.3 35 0.0 LegendMM LegendMM   100.16     LegendNANA
20:00 21.5 7.3 40 0.0 LegendMM LegendMM   100.18     LegendNANA
21:00 20.4 7.4 43 0.0 LegendMM LegendMM   100.22     LegendNANA
22:00 19.4 7.5 46 0.0 LegendMM LegendMM   100.27     LegendNANA
23:00 18.7 7.9 49 0.0 LegendMM LegendMM   100.32     LegendNANA

Notes on Data Quality.

Legend

  • E = Estimated
  • M = Missing
  • NA = Not Available*
  • [empty] = Indicates an unobserved value
Date modified: